sat.trackr.live / text

‹ back to catalog

ONEWEB-0330

NORAD 49108 · 2021-075AK

PAYLOAD ACTIVE UNKNOWN

§ Identity

Operator
Country
UK
Launch date
2021-08-21
Launch site
TYMSC
Launch vehicle
Mass (kg)
RCS (m²)

Purposes: comms

External: N2YO · Heavens-Above · Gunter

§ Orbital elements

Epoch: 2026-09-14T11:40:14.719872Z

Period
109.29 min
Inclination
87.9208°
Eccentricity
0.0001751
Mean motion
13.17648191 rev/d
Perigee alt
1,192.4 km
Apogee alt
1,195.0 km
Semi-major
7,571.9 km
B*
1.8119e-4
RAAN
348.1476°
Arg perigee
104.6856°
Mean anomaly
255.4470°
Rev number
24,538

§ Raw data

ONEWEB-03301 49108U 21075AK  26257.48628148  .00000083  00000+0  18119-3 0  99932 49108  87.9208 348.1476 0001751 104.6856 255.4470 13.17648191245385

JSON: /api/v1/satellites/49108 · /tle

For live sub-satellite position, see the globe view (requires WebGL).

§ Visibility from observer

Set your observer location to see the next 7 days of passes ≥ 10°. The values pass through the URL so the page stays shareable.

No JS? Fill the form by hand. The geolocation button needs JavaScript.